Location: Ford County Road and Bridge Department
(37.7686°N, 99.9762°W)
Time: 02:14:19
(UTC+00:00)

N. Korean satellite - Visible Passes

Search period start: 07 April 2020 00:00
Search period end: 17 April 2020 00:00
Orbit: 454 x 507 km, 97.2° (Epoch: 06 April)

Date Brightness Start Highest point End Pass type
(mag) Time Alt. Az. Time Alt. Az. Time Alt. Az.
08 Apr 9.4 11:40:54 10° NE 11:43:34 21° E 11:46:12 10° SE visible
12 Apr 9.6 11:32:11 10° NE 11:34:23 16° E 11:36:35 10° SE visible
16 Apr 9.8 11:23:40 10° ENE 11:25:10 12° E 11:26:40 10° ESE visible
